Showing default

LEMUR 2 TOMATOKECHUP, 60471

Orbit data source: Space-Track

LEMUR 2 TOMATOKECHUP, 60471 is an American payload satellite in SSO that was launched on Fri, 16 Aug 2024 UTC via an FALCON 9 launch vehicle from the Air Force Western Test Range (AFWTR). Payloads include a variety of satellites, spacecraft, and rockets equipped with specific instruments for various scientific and technological missions. These include communications satellites like Starlink; space stations such as the ISS; scientific satellites like the Hubble; Earth observation satellites from companies like Planet Labs, Umbra, and HawkEye 360; GPS; miniature CubeSats for education and research; and military/defense satellites.

Loading next visibility...
LEMUR 2 TOMATOKECHUP details
Identifier
60471, 2024-149D
Orbit
SSO
Last TLE update1 day ago
Origin
Flag of USSPIREG/HUBN (US)
ManufacturerSpire/Glasgow
MissionOperational spacecraft
Bus & MotorCUBESAT 16U, Unknown motor
Mass22 kg wet, 22 kg dry
Launch date (UTC)
2024-08-16 (4 months ago)
Launch vehicle
FALCON 9
Launch site
Air Force Western Test Range (AFWTR)
Object type
Payload
Rocket body
Debris
Shape & HBRUnknown
Radar Cross SectionMedium (>0.1 m² and <1 m²)

Expand to show TLE details & history

TLE from 1 day ago
0 LEMUR 2 TOMATOKECHUP
1 60471U 24149D   24347.67180689  .00011236  00000-0  50369-3 0  9992
2 60471  97.4345  61.4566 0003037  54.9374 305.2147 15.21388388 17899
Epoch: 2024-12-12T16:07Z
Definitive object data (Epoch: 2024-12-12T16:07:24.115Z)
Latitude0.00006°
Longitude97.75733°
Altitude503.539 km
Speed7.613 km/s
True Right ascension04h 05m 49s
True Declination0° 00' 00"
Sunlit
Object was in full shadow at TLE epoch
Visualization TLE readout
Latitude75.22577°
Longitude-51.51394°
Altitude513.148 km
Speed7.615 km/s
Apparent Right ascension10h 20m 35s
Apparent Declination33° 48' 17"
Sunlit
Object is in daylight
Visualization observer readout
Local Sidereal Time21:05:50
Azimuth344.051° N
Elevation-14.283°
Doppler factor1
Orbital elements
Apogee altitude500.706 km
Perigee altitude496.529 km
Semi-major axis6,876.754 km
Eccentricity0.0003037
Inclination97.4345°
RAAN61.4566°
Arg. of periapsis54.9374°
True anomaly305.18626°
Mean anomaly305.2147°
Eccentric anomaly305.20048°
Mean motion3.80599 °/min
BSTAR0.00050369
Orbital period94.59 mins
Loading maneuver chart data...
Loading historical data...
Loading historical data...
Loading historical data...
Loading historical data...
Loading historical data...
Loading historical data...
Loading historical data...

LEMUR 2 TOMATOKECHUP Visibility forecast

Observer location: undefined°, undefined

Span
Click to sort rows by Start time (UTC) header in descending order
Start Az.
Max El. time (UTC)
Max El. Az.
Max El.
End time (UTC)
End Az.
6 mins2024-12-14 04:33:54.652Z129.496° SE2024-12-14 04:36:54.652Z67.924° E25.409°2024-12-14 04:39:54.652Z11.638° NNE
5 mins2024-12-14 17:37:54.652Z34.219° NE2024-12-14 17:39:54.652Z79.753° E32.768°2024-12-14 17:42:54.652Z165.114° S
|